Location: Colma
(37.6769°N, 122.4597°W)
Time: 14:17:46
(UTC+00:00)

Daily predictions for brighter satellites

Satellite Brightness Start Highest point End
(mag) Time Altitude Azimuth Time Altitude Azimuth Time Altitude Azimuth
USA 238 DEB 4.2 12:10:11 50° NE 12:10:11 50° NE 12:15:02 10° NE
USA 238 4.2 12:10:15 50° NE 12:10:15 50° NE 12:15:08 10° NE
Cosmos 1943 Rocket 3.5 12:34:38 28° NNE 12:34:38 28° NNE 12:37:15 10° NNE
Tsikada Rocket 4.1 12:27:47 10° S 12:33:56 73° E 12:40:10 10° N
Cosmos 2082 Rocket 3.9 12:45:14 20° SSW 12:45:14 20° SSW 12:47:02 10° S
Cosmos 921 Rocket 4.3 12:54:49 24° NNE 12:56:54 40° ENE 13:01:06 10° SE
DELTA 2 R/B (1) 3.7 12:56:59 53° SSW 12:58:05 67° SSE 13:03:35 10° ENE
Envisat 3.5 12:54:17 10° NNE 12:59:18 60° E 13:04:19 10° S
MOS 1-B Rocket 4.2 12:54:00 10° SSE 13:00:31 70° ENE 13:06:17 10° N
Cosmos 2098 Rocket 3.9 12:57:12 10° SSE 13:00:38 45° E 13:04:56 10° NNE
Cosmos 968 Rocket 3.5 13:03:36 58° NNW 13:03:36 58° NNW 13:08:02 10° NNE
Cosmos 1766 Rocket 4.4 13:05:26 10° SSE 13:09:36 49° E 13:13:47 10° NNE
Cosmos 1151 Rocket 4.2 13:06:35 10° N 13:10:46 43° E 13:14:56 10° SSE
Meteor 2-3 Rocket 3.7 13:05:37 10° SSW 13:11:05 53° WNW 13:16:41 10° N
CENTAUR R/B 3.3 13:12:13 32° NW 13:12:13 32° NW 13:17:48 10° NNE
Meteor 1-31 Rocket 3.3 13:09:45 10° NNE 13:13:37 59° E 13:17:28 10° S
Cosmos 1782 2.6 13:14:10 81° NW 13:14:17 83° W 13:18:13 10° S
Hubble Space Telescope 3.0 13:15:04 14° SSW 13:15:09 14° SSW 13:17:16 10° SSE
Cosmos 1862 3.8 13:14:24 10° S 13:18:15 58° E 13:22:09 10° NNE
ATLAS 5 CENTAUR R/B 4.2 13:17:34 10° SSE 13:20:03 17° ESE 13:22:39 10° ENE
FALCON 9 R/B 4.3 13:05:29 26° W 13:22:29 77° S 13:30:05 10° ESE
CBERS 1 LM4 rocket 4.4 13:18:16 10° NNE 13:23:10 84° ESE 13:28:15 10° SSW
SJ-12 3.8 13:19:24 10° N 13:23:32 71° WNW 13:27:37 10° SSW
Meteor 2-13 Rocket 4.3 13:18:20 10° SSW 13:24:24 67° W 13:30:28 10° N
H-2A R/B 2.5 13:21:45 10° N 13:25:26 65° WNW 13:29:10 10° SSW
Cosmos 1570 Rocket 4.3 13:24:54 40° W 13:25:26 41° WSW 13:30:21 10° S
ADEOS 4.3 13:20:42 10° NNE 13:25:50 54° E 13:30:55 10° S
COSMO-SKYMED 1 2.6 13:23:26 10° SSE 13:27:46 82° ENE 13:31:50 12° N
CZ-4C R/B 4.2 13:27:34 10° SE 13:30:29 36° ENE 13:33:23 10° N
Meteor 1-26 Rocket 4.3 13:26:16 12° NNW 13:31:33 56° W 13:37:06 10° S
NOSS 3-2 (C) 4.0 13:31:04 30° NW 13:31:34 30° NW 13:37:04 10° NNE
Gbstr 26 Del rocket 3.3 13:33:47 38° WSW 13:34:24 41° SW 13:38:30 10° SSE
Cosmos 2263 4.1 13:28:53 10° SSW 13:34:32 72° WNW 13:40:17 10° NNE
CZ-2C R/B 4.3 13:30:25 10° NNE 13:35:04 41° E 13:39:54 10° S
Helios 1B 4.4 13:32:21 10° S 13:36:39 74° WSW 13:40:24 14° NNW
ATLAS 3B R/B 4.2 13:33:27 10° S 13:39:13 36° ESE 13:45:12 10° NE
CZ-4B R/B 4.4 13:36:40 10° NNE 13:39:57 33° E 13:43:14 10° SSE
Cosmos 1408 Rocket 4.2 13:40:27 10° S 13:44:39 55° E 13:48:52 10° NNE
Cosmos 2369 Rocket 2.6 13:42:28 10° SW 13:47:39 39° WNW 13:52:52 10° N
Cosmos 2142 Rocket 4.5 13:44:14 10° N 13:50:34 77° W 13:56:56 10° S
Iridium 2 4.3 13:49:48 10° SSW 13:53:15 33° W 13:56:43 10° NNW
Cosmos 836 Rocket 4.4 13:49:43 10° NNW 13:54:57 75° WSW 14:00:08 10° S
Cosmos 1867 4.5 13:54:33 21° WNW 13:56:50 28° WSW 14:01:25 10° SSW
Cosmos 2279 Rocket 3.9 13:54:23 10° NNW 14:00:31 67° W 14:06:38 10° S
USA 215 3.4 13:56:40 10° SE 14:03:09 74° NE 14:09:41 10° NW
Cosmos 1503 Rocket 4.1 13:59:08 10° SW 14:04:15 53° WNW 14:09:27 10° N
Cosmos 1515 Rocket 3.9 14:00:55 10° N 14:05:17 66° E 14:09:34 10° SSE
Nadezhda 4 Rocket 4.1 13:59:57 10° S 14:06:05 81° E 14:12:19 10° N
SL-27 R/B 4.2 14:03:43 10° N 14:06:58 32° ENE 14:10:09 10° SE
DMSP B5D2-2 4.2 14:02:04 10° SSE 14:07:16 77° ENE 14:12:29 10° N
SJ 16-02 1.9 14:04:13 10° S 14:08:32 62° ESE 14:12:52 10° NNE
Cosmos 1656 Rocket 4.1 14:04:19 10° SW 14:09:13 35° WNW 14:14:11 10° N
Cosmos 1340 Rocket 3.6 14:06:01 10° S 14:09:50 53° E 14:13:43 10° NNE
CZ-2C R/B 3.3 14:09:20 10° SSW 14:14:23 36° W 14:19:21 10° NNW
Cosmos 1777 Rocket 4.1 14:10:15 10° SSW 14:15:27 85° ESE 14:20:42 10° NNE
Cosmos 1943 Rocket 4.0 14:16:14 11° NW 14:16:19 11° NW 14:17:47 10° NNW
Cosmos 1500 Rocket 3.7 14:16:32 10° S 14:20:59 82° E 14:25:27 10° N
Landsat 5 4.4 14:17:29 10° SSW 14:21:31 32° W 14:25:34 10° NNW
Cosmos 1939 Rocket 2.8 14:18:19 10° NNE 14:22:15 87° E 14:26:07 10° SSW
NOAA 6 4.4 14:22:29 10° NNE 14:27:36 71° ESE 14:32:41 10° S
Cosmos 773 Rocket 4.1 14:22:28 10° NNW 14:27:43 81° ENE 14:32:52 10° SSE
Cosmos 1812 4.4 14:27:52 10° NW 14:30:11 15° W 14:32:29 10° SW
Cosmos 1805 Rocket 4.2 14:28:22 10° S 14:32:42 61° E 14:37:02 10° NNE
Sich 1 4.2 14:29:34 10° SSE 14:33:41 47° E 14:37:47 10° NNE
Meteor 1-27 Rocket 3.8 14:29:22 10° N 14:35:03 81° W 14:40:49 10° S
H-2A R/B 2.0 14:30:59 10° S 14:35:11 82° WSW 14:39:32 10° NNW
Envisat 4.5 14:34:55 10° NNW 14:37:47 15° WNW 14:40:39 10° W
Okean O Rocket 4.3 14:36:54 10° NE 14:40:33 25° E 14:44:10 10° SSE
NOAA 12 4.2 14:36:15 10° N 14:41:23 54° WNW 14:46:27 10° SSW
BREEZE-M DEB (TANK) 3.7 14:39:40 10° WSW 14:50:30 43° NW 14:53:53 10° NE
